TimeMST,TemperatureF,Dew PointF,Humidity,Sea Level PressureIn,VisibilityMPH,Wind Direction,Wind SpeedMPH,Gust SpeedMPH,PrecipitationIn,Events,Conditions,WindDirDegrees,DateUTC
12:53 AM,28.0,16.0,61,29.88,10.0,NW,8.1,-,N/A,,Clear,310,2012-11-26 07:53:00
1:53 AM,30.0,19.9,66,29.93,10.0,NW,18.4,23.0,N/A,,Overcast,320,2012-11-26 08:53:00
2:53 AM,27.0,21.0,78,30.02,10.0,NW,12.7,-,N/A,,Partly Cloudy,320,2012-11-26 09:53:00
3:53 AM,26.1,23.0,88,30.05,10.0,NW,11.5,-,N/A,,Overcast,320,2012-11-26 10:53:00
4:43 AM,24.8,21.2,86,30.10,10.0,North,10.4,-,N/A,,Overcast,360,2012-11-26 11:43:00
4:53 AM,23.0,21.0,92,30.11,10.0,North,12.7,-,N/A,,Mostly Cloudy,360,2012-11-26 11:53:00
5:05 AM,24.8,21.2,86,30.11,10.0,North,12.7,-,N/A,,Mostly Cloudy,360,2012-11-26 12:05:00
5:19 AM,24.8,21.2,86,30.12,10.0,North,16.1,-,N/A,,Mostly Cloudy,360,2012-11-26 12:19:00
5:43 AM,24.8,21.2,86,30.14,10.0,North,10.4,-,N/A,,Overcast,350,2012-11-26 12:43:00
5:53 AM,23.0,19.9,88,30.15,9.0,North,12.7,-,0.00,Snow,Light Snow,360,2012-11-26 12:53:00
6:12 AM,21.2,19.4,93,30.15,9.0,North,12.7,-,0.00,Snow,Light Snow,360,2012-11-26 13:12:00
6:40 AM,21.2,19.4,93,30.17,10.0,North,11.5,-,0.00,,Overcast,360,2012-11-26 13:40:00
6:53 AM,21.9,19.9,92,30.18,10.0,NNW,11.5,-,0.00,,Overcast,340,2012-11-26 13:53:00
7:04 AM,21.2,19.4,93,30.17,10.0,NNW,12.7,-,N/A,,Overcast,340,2012-11-26 14:04:00
7:53 AM,21.0,19.0,92,30.24,10.0,North,6.9,-,N/A,,Overcast,10,2012-11-26 14:53:00
8:02 AM,21.2,19.4,93,30.21,10.0,North,10.4,-,N/A,,Overcast,360,2012-11-26 15:02:00
8:24 AM,21.2,19.4,93,30.21,10.0,North,12.7,-,N/A,,Scattered Clouds,360,2012-11-26 15:24:00
8:53 AM,23.0,19.9,88,30.25,10.0,NNW,6.9,-,N/A,,Overcast,330,2012-11-26 15:53:00
9:21 AM,24.8,19.4,80,30.23,10.0,North,8.1,-,N/A,,Mostly Cloudy,350,2012-11-26 16:21:00
9:31 AM,24.8,19.4,80,30.23,10.0,NNW,6.9,-,N/A,,Overcast,340,2012-11-26 16:31:00
9:53 AM,26.1,19.0,75,30.27,10.0,NNW,8.1,-,N/A,,Mostly Cloudy,330,2012-11-26 16:53:00
10:07 AM,26.6,19.4,74,30.23,10.0,North,6.9,-,N/A,,Scattered Clouds,350,2012-11-26 17:07:00
10:53 AM,28.0,18.0,66,30.25,10.0,North,8.1,-,N/A,,Clear,360,2012-11-26 17:53:00
11:53 AM,30.0,18.0,61,30.24,10.0,North,4.6,-,N/A,,Clear,350,2012-11-26 18:53:00
12:53 PM,32.0,18.0,56,30.19,10.0,NW,3.5,-,N/A,,Clear,310,2012-11-26 19:53:00
1:53 PM,34.0,17.1,50,30.16,10.0,NNE,5.8,-,N/A,,Clear,30,2012-11-26 20:53:00
2:53 PM,34.0,18.0,52,30.16,10.0,NNE,5.8,-,N/A,,Clear,20,2012-11-26 21:53:00
3:53 PM,32.0,16.0,52,30.16,10.0,Calm,Calm,-,N/A,,Clear,0,2012-11-26 22:53:00
4:53 PM,27.0,14.0,58,30.22,10.0,Calm,Calm,-,N/A,,Clear,0,2012-11-26 23:53:00
5:53 PM,19.9,16.0,85,30.26,10.0,South,5.8,-,N/A,,Clear,170,2012-11-27 00:53:00
6:53 PM,24.1,10.0,55,30.25,10.0,SW,9.2,-,N/A,,Clear,220,2012-11-27 01:53:00
7:53 PM,30.0,7.0,38,30.21,10.0,SW,18.4,-,N/A,,Clear,230,2012-11-27 02:53:00
8:53 PM,28.9,7.0,40,30.22,10.0,SW,18.4,-,N/A,,Clear,220,2012-11-27 03:53:00
9:53 PM,32.0,3.0,29,30.18,10.0,WSW,24.2,31.1,N/A,,Clear,240,2012-11-27 04:53:00
10:53 PM,33.1,-0.0,24,30.17,10.0,WSW,23.0,29.9,N/A,,Clear,240,2012-11-27 05:53:00
11:53 PM,33.1,-0.9,23,30.15,10.0,WSW,20.7,31.1,N/A,,Clear,240,2012-11-27 06:53:00